Total_Precipitation_Accumulation
0.60 0.62 0.61 0.57 0.54 0.55 0.66 0.76 1.16 1.57 2.06 2.48 2.64 2.63 2.70 2.59 2.39 2.02 1.90 1.97 1.95 1.89 1.90 1.79 1.73 1.87 1.93 1.84 1.72 1.98 2.04 1.94 1.78 1.62 1.63 1.68 1.66 1.59 1.53 1.47 1.38 1.45 1.50 1.42
0.61 0.50 0.57 0.63 0.65 0.72 0.82 0.88 1.11 1.64 2.35 2.65 2.72 2.70 2.73 2.64 2.47 2.38 2.26 2.14 2.11 2.07 2.08 2.02 1.90 1.95 2.07 2.00 1.85 1.98 2.01 2.06 2.07 1.95 1.92 1.83 1.68 1.60 1.60 1.59 1.53 1.44 1.41 1.33
0.96 0.60 0.84 1.28 0.99 0.94 1.09 1.17 1.41 2.04 2.40 2.32 2.42 2.60 2.80 2.86 2.74 2.64 2.60 2.44 2.40 2.37 2.32 2.32 2.28 2.21 2.20 2.08 1.93 1.95 2.06 2.13 2.11 2.04 1.98 1.93 1.70 1.59 1.66 1.66 1.63 1.56 1.42 1.37
1.12 1.23 1.95 1.78 1.07 1.04 1.26 1.46 1.66 1.93 2.04 2.07 2.09 2.22 2.36 2.49 2.62 2.60 2.52 2.44 2.46 2.56 2.49 2.44 2.33 2.27 2.18 2.06 2.05 2.08 2.13 2.13 2.06 1.91 1.89 1.85 1.77 1.73 1.70 1.62 1.60 1.57 1.47 1.36
1.33 1.70 1.96 1.80 1.16 1.19 1.64 2.19 1.86 1.86 1.74 1.57 1.54 1.81 2.29 2.38 2.39 2.52 2.54 2.49 2.48 2.47 2.41 2.38 2.28 2.21 2.14 2.08 2.07 2.05 2.03 1.94 1.86 1.77 1.79 1.71 1.70 1.66 1.63 1.56 1.51 1.45 1.36 1.29
1.44 2.00 2.38 2.18 1.20 1.00 1.52 2.73 2.10 1.83 1.75 1.62 1.71 2.20 2.40 2.25 2.26 2.23 2.22 2.25 2.17 2.03 1.98 2.11 2.21 2.18 2.10 2.02 1.99 1.96 1.75 1.55 1.48 1.54 1.62 1.50 1.42 1.37 1.36 1.38 1.39 1.31 1.22 1.22
1.55 2.09 2.33 1.42 0.89 1.08 2.29 2.86 2.20 1.83 1.69 1.67 1.95 2.16 1.90 1.72 1.83 1.88 1.86 1.79 1.72 1.67 1.71 1.86 1.90 1.92 1.93 1.85 1.85 1.75 1.57 1.46 1.43 1.39 1.38 1.35 1.34 1.33 1.25 1.20 1.27 1.29 1.28 1.23
1.67 2.25 2.40 1.20 1.01 1.66 2.08 1.71 1.64 1.60 1.52 1.47 1.46 1.37 1.38 1.42 1.40 1.40 1.44 1.43 1.38 1.46 1.55 1.63 1.59 1.56 1.64 1.66 1.62 1.52 1.48 1.43 1.46 1.37 1.20 1.24 1.42 1.38 1.32 1.34 1.34 1.30 1.28 1.21
1.75 2.14 1.85 1.22 1.18 1.32 1.36 1.33 1.24 1.25 1.17 1.10 1.10 0.97 1.04 1.17 1.12 1.08 1.09 1.16 1.22 1.25 1.35 1.49 1.51 1.52 1.56 1.52 1.44 1.43 1.50 1.50 1.41 1.31 1.36 1.37 1.42 1.40 1.33 1.30 1.21 1.11 1.07 1.03
1.45 1.54 1.35 1.18 1.13 1.11 1.02 1.00 0.93 0.98 1.09 1.04 1.02 1.06 1.08 1.06 1.01 0.93 0.95 1.00 1.10 1.15 1.18 1.29 1.33 1.35 1.44 1.38 1.37 1.49 1.59 1.54 1.41 1.30 1.28 1.32 1.35 1.32 1.22 1.12 1.07 1.00 0.97 0.93
1.46 1.43 1.36 1.30 1.08 1.00 0.94 0.87 0.83 0.90 0.98 1.05 1.06 1.09 1.07 1.03 1.00 0.98 1.00 1.04 1.10 1.18 1.18 1.13 1.11 1.17 1.17 1.19 1.31 1.51 1.47 1.33 1.23 1.10 1.07 1.12 1.13 1.10 1.07 0.96 0.89 0.87 0.81 0.77
1.45 1.28 1.34 1.38 1.09 0.93 0.94 0.91 0.90 0.91 1.02 1.15 1.15 1.18 1.13 1.06 1.03 1.03 1.03 1.02 1.11 1.09 1.03 1.06 1.09 1.11 1.06 1.01 1.13 1.35 1.34 1.13 0.98 0.91 0.89 0.83 0.82 0.83 0.80 0.76 0.75 0.71 0.70 0.65
1.04 0.95 0.94 0.88 0.77 0.77 0.78 0.76 0.79 0.84 0.96 1.10 1.12 1.10 1.02 1.01 1.02 1.06 1.09 1.06 1.05 1.03 0.98 0.95 0.99 1.00 1.00 0.94 0.96 1.06 1.10 0.93 0.78 0.75 0.78 0.76 0.76 0.85 0.87 0.72 0.67 0.64 0.63 0.60
0.78 0.80 0.86 0.84 0.84 0.77 0.74 0.75 0.80 0.81 0.82 0.89 0.98 0.98 0.94 0.95 0.98 1.00 1.02 0.96 0.84 0.79 0.85 0.86 0.86 0.82 0.74 0.71 0.81 0.86 0.80 0.70 0.64 0.68 0.69 0.66 0.64 0.73 0.82 0.87 0.84 0.73 0.66 0.65
0.75 0.76 0.88 0.88 0.85 0.76 0.76 0.80 0.91 0.94 0.87 0.83 0.82 0.84 0.82 0.80 0.85 0.87 0.84 0.78 0.78 0.80 0.80 0.78 0.79 0.79 0.64 0.56 0.62 0.65 0.63 0.62 0.59 0.59 0.57 0.54 0.52 0.55 0.58 0.66 0.77 0.82 0.78 0.75
0.77 0.75 0.80 0.83 0.86 0.83 0.83 0.88 0.98 0.99 0.86 0.85 0.89 0.93 0.84 0.79 0.77 0.78 0.78 0.78 0.80 0.82 0.79 0.78 0.78 0.69 0.60 0.58 0.59 0.61 0.54 0.53 0.56 0.54 0.54 0.53 0.50 0.50 0.55 0.61 0.68 0.74 0.77 0.75
0.85 0.91 0.88 0.83 0.80 0.82 0.80 0.75 0.77 0.88 0.82 0.79 0.80 0.84 0.80 0.78 0.79 0.83 0.92 0.90 0.84 0.79 0.75 0.75 0.71 0.58 0.52 0.52 0.54 0.52 0.47 0.49 0.50 0.48 0.49 0.50 0.50 0.53 0.57 0.59 0.66 0.75 0.78 0.77
0.84 0.86 0.82 0.78 0.77 0.73 0.68 0.62 0.59 0.67 0.75 0.74 0.73 0.72 0.75 0.76 0.80 0.87 0.94 0.85 0.76 0.74 0.69 0.65 0.63 0.57 0.52 0.50 0.54 0.52 0.53 0.54 0.50 0.47 0.45 0.47 0.49 0.56 0.65 0.72 0.73 0.74 0.78 0.74
0.70 0.68 0.66 0.65 0.67 0.64 0.58 0.56 0.52 0.53 0.59 0.64 0.66 0.69 0.75 0.78 0.82 0.88 0.88 0.77 0.75 0.76 0.66 0.59 0.58 0.55 0.56 0.55 0.56 0.60 0.60 0.54 0.53 0.53 0.47 0.47 0.48 0.52 0.62 0.70 0.72 0.76 0.74 0.69
0.59 0.58 0.59 0.58 0.58 0.58 0.58 0.52 0.47 0.47 0.51 0.59 0.65 0.71 0.71 0.73 0.79 0.79 0.79 0.77 0.75 0.71 0.63 0.54 0.49 0.50 0.55 0.55 0.55 0.60 0.65 0.61 0.63 0.67 0.58 0.52 0.51 0.52 0.56 0.58 0.59 0.64 0.69 0.67
0.55 0.54 0.56 0.56 0.58 0.57 0.52 0.45 0.43 0.45 0.46 0.54 0.63 0.69 0.67 0.66 0.69 0.71 0.73 0.76 0.70 0.60 0.54 0.51 0.47 0.45 0.47 0.51 0.54 0.56 0.61 0.64 0.65 0.64 0.61 0.57 0.53 0.51 0.54 0.55 0.57 0.61 0.65 0.64
0.54 0.54 0.55 0.53 0.54 0.60 0.53 0.43 0.40 0.43 0.48 0.55 0.57 0.61 0.65 0.67 0.67 0.70 0.71 0.75 0.71 0.62 0.49 0.43 0.41 0.44 0.45 0.44 0.41 0.41 0.42 0.48 0.55 0.58 0.59 0.57 0.52 0.51 0.55 0.58 0.58 0.59 0.60 0.59
0.58 0.57 0.59 0.62 0.66 0.70 0.61 0.50 0.46 0.45 0.49 0.54 0.58 0.66 0.73 0.73 0.66 0.68 0.73 0.68 0.64 0.60 0.47 0.42 0.42 0.41 0.37 0.32 0.32 0.33 0.34 0.36 0.39 0.43 0.47 0.49 0.50 0.50 0.51 0.56 0.58 0.60 0.57 0.57
0.65 0.61 0.60 0.66 0.75 0.73 0.71 0.63 0.56 0.49 0.48 0.51 0.59 0.69 0.74 0.68 0.58 0.57 0.63 0.64 0.63 0.56 0.49 0.47 0.42 0.37 0.32 0.29 0.30 0.32 0.34 0.37 0.39 0.42 0.43 0.42 0.44 0.47 0.49 0.52 0.56 0.56 0.56 0.56
0.62 0.64 0.62 0.69 0.77 0.73 0.69 0.62 0.55 0.51 0.52 0.56 0.58 0.62 0.61 0.55 0.53 0.49 0.45 0.45 0.47 0.43 0.42 0.41 0.39 0.37 0.33 0.32 0.34 0.35 0.36 0.38 0.40 0.41 0.42 0.43 0.42 0.44 0.47 0.52 0.59 0.61 0.60 0.59
0.70 0.77 0.77 0.76 0.74 0.69 0.62 0.56 0.57 0.60 0.62 0.63 0.61 0.58 0.52 0.49 0.49 0.46 0.40 0.36 0.38 0.38 0.36 0.34 0.33 0.34 0.34 0.37 0.40 0.41 0.41 0.41 0.42 0.41 0.41 0.43 0.45 0.48 0.52 0.60 0.62 0.63 0.61 0.56
0.81 0.81 0.80 0.78 0.68 0.61 0.61 0.58 0.57 0.60 0.64 0.66 0.63 0.55 0.49 0.47 0.47 0.45 0.39 0.36 0.36 0.36 0.34 0.32 0.31 0.33 0.35 0.36 0.38 0.38 0.37 0.41 0.47 0.49 0.49 0.49 0.50 0.55 0.59 0.63 0.65 0.66 0.63 0.57